Wind_Speed
42 40 38 37 37 36 35 35 34 32 31 30 30 30 30 29 27 25 24 25 25 25 25 26 26 25 25 24 23 23 22 21 20 20 19 19 19 19 20 20 20 19 18
43 43 41 40 39 38 38 37 36 35 34 34 34 34 34 32 29 27 26 26 27 27 28 28 28 27 27 27 25 24 23 22 22 22 21 21 21 21 21 22 23 22 21
43 42 41 40 39 39 39 38 38 37 37 36 36 36 36 34 32 30 30 30 30 30 30 30 30 30 29 28 27 26 24 23 23 23 22 22 22 23 23 23 24 25 23
40 40 39 39 38 38 38 38 38 38 38 37 37 37 38 36 35 34 33 32 33 32 32 32 32 32 31 30 29 27 26 25 24 24 24 24 24 25 25 25 25 26 26
36 36 36 36 36 36 36 37 37 37 37 38 38 38 40 40 39 37 37 36 36 36 36 35 34 32 31 32 31 29 27 26 25 26 25 25 25 26 25 26 26 26 26
32 33 33 34 34 35 35 35 36 36 36 36 36 37 39 39 40 41 40 39 39 39 38 36 34 32 31 31 31 30 28 27 26 26 26 26 26 26 26 26 26 26 25
32 31 31 31 32 33 34 35 35 34 34 35 36 36 37 40 41 39 39 41 41 41 37 34 33 32 31 31 31 30 28 26 26 26 26 26 26 26 26 26 26 26 25
32 31 31 30 30 31 32 33 34 35 35 35 36 37 38 39 40 39 39 41 39 38 38 37 36 33 31 31 31 30 28 26 25 25 25 25 25 26 26 26 26 25 25
30 30 31 31 30 30 30 31 33 34 35 35 35 35 36 37 37 38 38 37 38 37 37 34 31 31 31 30 30 28 26 24 24 24 24 25 26 26 25 25 25 25 25
23 25 26 27 28 29 29 29 30 31 31 31 32 33 33 33 35 35 34 33 33 33 31 29 29 28 28 27 26 24 23 23 23 24 24 25 25 25 25 25 25 25 25
15 16 19 21 23 24 25 25 25 25 26 27 28 29 29 28 29 29 29 28 27 26 25 25 25 24 23 22 21 21 21 22 24 24 24 25 25 25 25 25 25 25 25
10 12 13 14 15 16 17 18 18 19 19 20 21 22 21 21 20 21 21 20 19 17 16 16 17 16 16 17 18 19 21 22 23 24 24 25 25 25 25 25 25 24 24
4 5 6 6 7 8 9 10 10 11 11 11 10 10 10 11 11 12 12 11 10 10 10 11 12 13 14 16 18 20 21 22 23 23 24 24 24 25 25 24 24 24 24
5 4 3 2 1 2 1 2 2 2 2 2 3 3 3 3 3 3 4 4 5 7 8 10 12 14 16 17 19 20 20 21 22 23 24 24 24 24 24 24 24 23 23
14 13 11 10 10 10 10 9 9 9 8 7 6 5 4 3 3 3 3 4 5 7 9 12 14 16 17 18 19 20 21 22 22 23 22 23 23 23 23 24 24 24 24
20 19 17 15 14 14 13 13 12 11 10 9 8 7 6 5 5 5 6 8 9 11 12 14 16 17 18 19 20 21 22 22 22 22 22 22 22 22 23 23 23 23 23
18 19 19 18 17 16 15 14 12 12 11 10 9 8 7 7 7 8 9 10 11 13 14 15 17 18 19 20 21 22 22 22 22 22 22 22 22 22 21 22 22 22 22
18 17 17 16 16 16 15 14 14 13 12 11 10 10 9 9 9 10 10 11 12 13 15 16 18 19 19 20 21 21 22 22 22 22 21 21 21 21 21 20 21 21 21
18 18 17 16 16 16 15 15 14 14 14 13 13 13 12 12 12 12 12 13 13 14 14 15 16 16 17 18 19 20 21 21 21 20 20 20 20 20 20 19 18 18 18
17 17 17 17 16 16 16 15 15 15 15 15 15 14 14 14 14 14 14 14 14 14 14 15 15 14 15 15 16 17 18 18 18 17 17 17 18 18 17 16 16 16 16
17 17 17 17 17 16 16 16 16 16 17 17 16 16 17 17 17 16 16 16 15 15 15 14 13 13 13 13 13 13 14 14 14 14 14 14 14 14 14 14 14 14 14
16 17 17 17 17 17 17 17 17 17 17 18 18 18 19 19 19 19 19 18 17 16 16 15 13 13 12 11 11 10 10 11 11 11 11 12 11 12 12 12 12 12 12
16 16 16 16 16 17 17 17 17 18 18 18 19 19 20 20 20 20 20 20 19 18 18 16 15 14 12 10 9 8 7 7 7 7 8 9 9 9 10 10 11 11 11
16 16 16 16 16 16 16 16 17 17 18 18 19 20 20 21 21 21 21 21 20 20 19 18 16 15 15 13 11 8 6 4 2 3 4 5 5 6 7 7 8 9 9
15 15 15 15 15 15 16 16 17 17 17 18 19 20 20 21 21 22 22 22 21 21 20 19 18 17 17 15 14 11 9 6 4 2 1 1 1 2 2 3 4 5 5
14 14 15 15 15 15 16 16 16 16 17 18 18 19 20 20 21 22 22 23 23 22 21 20 20 19 19 17 16 14 13 11 9 7 6 5 4 2 1 1 1 1 2
Wind_Direction
268 266 266 266 266 267 268 270 271 272 273 274 276 278 280 280 281 283 279 278 274 269 266 264 260 259 259 260 262 263 264 264 266 270 275 276 279 281 284 286 284 286 285
269 267 265 264 264 265 267 268 270 271 271 272 273 275 277 277 278 281 280 279 276 274 266 263 262 262 260 257 258 260 260 262 264 267 272 273 275 275 277 282 283 283 284
268 267 265 263 262 263 264 265 267 268 269 270 271 272 272 274 276 280 280 281 280 279 273 265 264 264 262 256 255 256 257 259 262 265 269 272 272 274 275 278 280 282 283
266 264 263 261 260 260 260 261 263 265 267 268 268 269 269 270 273 277 279 281 282 280 279 272 269 265 261 256 254 254 255 257 259 263 267 270 272 275 277 276 278 281 283
264 264 262 260 258 257 257 259 260 262 264 266 267 267 268 269 270 273 277 278 279 280 279 277 275 271 264 257 254 253 253 255 258 262 265 268 271 273 275 276 277 279 280
264 263 261 258 255 254 254 256 258 260 262 264 265 265 267 268 268 270 273 276 278 280 280 278 276 271 266 261 255 253 253 254 258 260 264 267 270 273 274 276 278 279 278
265 262 258 256 254 253 253 254 256 259 261 263 265 266 266 265 267 269 272 274 275 276 275 274 276 272 268 264 258 254 253 254 257 259 264 267 270 272 274 275 277 277 278
264 261 257 254 253 253 254 256 257 259 260 262 264 265 266 267 267 269 271 271 271 272 273 275 271 269 266 263 257 253 251 252 256 261 264 267 269 271 273 275 276 277 277
265 261 258 254 252 252 255 257 258 260 262 264 265 266 267 267 267 267 269 269 268 271 273 274 270 266 264 260 253 248 248 250 256 262 265 267 270 272 274 275 276 276 276
270 263 258 256 255 255 257 258 259 261 262 263 264 265 266 267 266 266 267 268 269 271 270 269 266 261 257 253 247 243 247 254 259 263 266 267 268 270 272 274 275 276 275
272 267 262 260 259 259 260 262 263 263 262 263 264 263 264 265 266 264 266 266 265 267 266 262 257 252 248 244 241 245 252 257 261 264 265 266 267 270 271 272 273 273 273
268 267 263 258 259 257 260 262 262 262 262 263 264 261 260 261 259 259 261 260 258 257 255 250 245 243 243 244 248 252 257 260 262 264 265 266 267 269 270 271 271 271 271
263 266 268 264 263 265 261 258 256 254 255 255 257 257 252 251 251 255 251 250 252 245 239 240 243 247 251 254 257 259 261 262 263 263 264 265 267 268 269 270 270 269 269
73 75 86 118 107 104 108 145 150 176 184 199 215 210 214 211 213 234 240 244 247 250 253 255 257 258 260 262 263 263 263 265 265 264 264 266 268 268 268 268 268 269 268
62 66 73 82 80 79 75 76 75 74 75 74 85 80 72 67 36 2 330 301 286 276 271 267 266 266 267 268 268 268 269 268 267 267 267 267 267 268 268 268 269 269 269
56 57 62 66 68 69 69 67 64 65 63 61 58 48 34 15 353 335 320 310 300 290 284 280 277 274 273 271 271 271 271 270 268 268 268 268 268 269 269 269 269 270 270
57 57 56 58 59 61 60 58 56 54 51 46 40 29 17 2 347 334 324 314 305 299 293 288 284 280 277 275 274 272 271 270 269 269 269 268 269 269 269 269 268 269 270
53 54 55 55 54 54 53 51 49 46 43 38 31 23 14 3 352 341 332 323 314 306 300 295 290 286 282 278 276 274 272 271 270 269 269 267 266 266 266 267 268 268 270
51 51 52 52 51 50 49 47 45 43 41 37 31 25 17 8 359 349 340 333 326 319 312 306 300 294 288 283 279 276 273 270 268 268 267 266 265 263 263 266 268 269 270
47 48 48 48 48 48 48 46 45 43 41 37 32 26 20 14 8 2 355 347 339 332 325 317 310 304 297 289 284 279 276 272 268 265 263 263 263 259 260 265 266 268 271
45 44 44 44 45 46 48 48 47 45 42 38 34 29 24 20 17 13 8 1 354 347 341 333 325 317 308 300 293 287 281 274 267 262 259 261 261 257 258 262 265 266 270
44 44 44 45 47 49 50 50 48 46 42 38 34 30 27 24 21 18 14 10 6 2 357 352 346 339 330 319 308 299 289 279 269 261 258 257 255 255 257 259 262 266 270
44 44 45 48 50 51 51 48 46 43 40 35 32 30 28 27 25 22 19 17 15 12 10 7 4 1 356 348 336 323 308 292 276 261 255 254 252 253 256 256 261 266 269
46 47 49 50 50 49 47 46 43 42 39 36 33 31 30 28 27 25 23 21 19 18 18 19 19 18 17 14 9 3 357 345 310 264 253 251 249 249 255 260 265 268 269
49 51 51 50 49 47 44 41 40 38 36 34 32 31 30 28 27 26 26 25 24 23 23 25 26 27 26 26 27 29 33 38 45 61 101 152 210 240 261 274 273 269 271
50 49 49 48 46 43 41 39 37 35 33 31 30 29 28 28 28 27 27 28 28 28 28 30 32 33 34 35 37 40 45 52 60 69 77 81 79 76 62 47 25 319 304
Height
5864 5865 5867 5868 5868 5869 5870 5871 5871 5873 5873 5874 5874 5873 5873 5873 5873 5873 5873 5873 5873 5874 5874 5874 5874 5875 5876 5876 5876 5877 5877 5877 5877 5878 5878 5878 5877 5877 5877 5876 5876 5877 5877
5854 5855 5857 5859 5860 5861 5862 5863 5863 5865 5866 5866 5867 5867 5865 5865 5867 5867 5867 5867 5867 5867 5868 5868 5868 5869 5869 5870 5870 5871 5872 5872 5873 5873 5873 5873 5874 5873 5873 5872 5871 5871 5872
5843 5844 5846 5848 5850 5851 5853 5854 5855 5856 5857 5858 5859 5859 5858 5857 5858 5860 5860 5860 5860 5860 5861 5861 5861 5862 5862 5863 5864 5865 5866 5866 5867 5868 5868 5868 5868 5868 5868 5867 5867 5866 5866
5831 5833 5835 5837 5839 5841 5843 5844 5845 5847 5848 5849 5850 5850 5849 5848 5849 5851 5852 5853 5853 5853 5854 5854 5854 5854 5855 5856 5858 5859 5859 5860 5861 5862 5862 5863 5863 5863 5862 5862 5862 5861 5860
5820 5822 5824 5827 5829 5831 5833 5834 5836 5837 5838 5840 5841 5841 5841 5839 5840 5842 5843 5844 5845 5846 5845 5845 5846 5846 5847 5849 5850 5851 5852 5853 5854 5855 5856 5856 5856 5856 5856 5856 5856 5856 5855
5810 5812 5815 5817 5818 5820 5823 5825 5827 5828 5830 5831 5832 5833 5833 5833 5833 5834 5835 5836 5837 5837 5837 5838 5838 5838 5839 5841 5842 5844 5845 5846 5848 5848 5849 5849 5849 5849 5849 5849 5849 5849 5849
5802 5804 5805 5807 5809 5811 5813 5815 5818 5819 5821 5822 5823 5824 5825 5826 5826 5826 5827 5828 5829 5829 5829 5830 5830 5830 5832 5833 5835 5836 5838 5839 5841 5841 5842 5842 5843 5842 5843 5843 5843 5842 5842
5793 5795 5796 5798 5800 5803 5805 5807 5809 5811 5812 5814 5815 5816 5817 5817 5818 5819 5820 5820 5820 5820 5821 5821 5822 5823 5824 5825 5826 5828 5830 5832 5834 5835 5835 5836 5836 5836 5836 5836 5836 5836 5836
5786 5787 5788 5790 5793 5795 5796 5798 5800 5802 5804 5805 5806 5807 5808 5809 5810 5811 5811 5810 5811 5811 5812 5813 5814 5815 5816 5817 5819 5821 5823 5825 5827 5828 5828 5829 5829 5829 5829 5829 5830 5830 5830
5780 5781 5782 5784 5786 5788 5789 5791 5792 5794 5795 5797 5798 5799 5800 5801 5801 5802 5803 5803 5803 5804 5804 5805 5806 5807 5808 5810 5812 5814 5816 5818 5820 5821 5822 5822 5823 5823 5822 5823 5823 5824 5824
5776 5777 5778 5779 5781 5782 5784 5785 5786 5787 5789 5790 5791 5791 5793 5793 5794 5794 5795 5796 5796 5797 5798 5799 5800 5801 5802 5804 5806 5808 5811 5813 5814 5814 5815 5816 5816 5816 5816 5816 5817 5817 5817
5775 5775 5776 5776 5777 5778 5779 5781 5782 5782 5783 5784 5785 5786 5786 5788 5788 5789 5790 5790 5791 5792 5793 5794 5795 5796 5798 5800 5802 5803 5805 5807 5807 5808 5809 5809 5810 5810 5810 5810 5810 5810 5811
5775 5775 5775 5775 5776 5776 5777 5778 5779 5780 5780 5781 5782 5782 5783 5784 5785 5786 5787 5787 5788 5789 5790 5792 5793 5794 5795 5796 5798 5799 5800 5801 5801 5802 5803 5803 5803 5804 5804 5804 5804 5804 5805
5778 5777 5776 5776 5776 5777 5777 5777 5778 5779 5779 5780 5781 5781 5782 5783 5783 5784 5785 5785 5786 5787 5788 5789 5790 5791 5792 5792 5793 5794 5794 5795 5795 5796 5796 5797 5797 5797 5797 5797 5798 5798 5798
5782 5780 5780 5779 5779 5779 5779 5779 5780 5780 5781 5781 5781 5782 5783 5783 5783 5784 5784 5785 5785 5785 5786 5787 5787 5787 5787 5788 5788 5788 5788 5789 5789 5790 5790 5790 5790 5791 5791 5791 5791 5791 5792
5787 5785 5784 5784 5783 5783 5783 5783 5783 5783 5783 5783 5784 5784 5784 5784 5784 5783 5783 5783 5783 5783 5783 5782 5782 5782 5782 5782 5781 5781 5782 5782 5783 5783 5783 5784 5784 5784 5784 5784 5785 5785 5785
5792 5791 5790 5789 5788 5787 5787 5786 5786 5786 5786 5785 5785 5785 5785 5784 5783 5782 5782 5781 5780 5779 5778 5777 5777 5776 5776 5775 5775 5775 5775 5775 5776 5776 5777 5777 5778 5777 5778 5778 5778 5779 5779
5797 5796 5794 5793 5792 5791 5791 5790 5789 5788 5788 5787 5786 5786 5785 5784 5782 5781 5780 5778 5777 5775 5774 5772 5771 5770 5769 5768 5768 5767 5768 5768 5769 5769 5770 5770 5771 5771 5771 5771 5772 5773 5773
5802 5800 5799 5797 5796 5795 5794 5793 5792 5790 5789 5788 5787 5786 5784 5783 5781 5779 5777 5775 5773 5771 5769 5767 5765 5764 5762 5761 5761 5760 5761 5761 5762 5762 5763 5763 5764 5764 5765 5766 5767 5767 5768
5806 5804 5803 5801 5800 5798 5797 5796 5794 5793 5792 5790 5789 5787 5785 5783 5780 5778 5775 5773 5770 5768 5765 5763 5761 5759 5757 5756 5755 5754 5754 5754 5755 5755 5756 5756 5757 5758 5759 5760 5761 5762 5763
5809 5808 5806 5804 5803 5801 5800 5798 5797 5796 5794 5792 5790 5788 5786 5783 5780 5777 5774 5771 5768 5765 5762 5759 5757 5754 5752 5751 5749 5748 5748 5748 5749 5750 5750 5751 5752 5753 5754 5756 5757 5757 5758
5813 5811 5810 5808 5806 5805 5803 5801 5800 5798 5797 5795 5792 5790 5787 5784 5781 5778 5774 5771 5767 5764 5760 5757 5754 5751 5749 5747 5745 5744 5743 5743 5743 5744 5745 5746 5747 5749 5750 5751 5752 5753 5754
5817 5815 5813 5812 5810 5808 5807 5805 5803 5801 5799 5797 5795 5792 5789 5786 5783 5779 5775 5772 5768 5764 5760 5756 5752 5749 5746 5744 5742 5740 5739 5739 5739 5740 5741 5742 5744 5745 5746 5747 5748 5749 5750
5821 5819 5817 5816 5814 5812 5811 5809 5807 5805 5803 5800 5798 5795 5792 5788 5785 5781 5777 5773 5769 5765 5760 5756 5753 5750 5746 5743 5741 5739 5738 5737 5737 5738 5739 5740 5741 5742 5743 5744 5745 5746 5747
5825 5823 5821 5820 5818 5816 5814 5812 5810 5808 5806 5803 5801 5798 5794 5791 5788 5784 5780 5775 5771 5767 5763 5758 5755 5751 5748 5745 5742 5739 5738 5737 5737 5737 5738 5739 5740 5741 5742 5742 5743 5744 5744
5829 5827 5825 5823 5822 5820 5818 5816 5813 5811 5809 5806 5803 5801 5797 5794 5791 5787 5783 5778 5774 5769 5765 5761 5758 5754 5751 5747 5745 5742 5740 5739 5738 5739 5739 5740 5740 5741 5741 5742 5742 5742 5743